RH
24 22 18 14 11 7 6 6 5 5 6 7 15 44 56 64 71 76 91 100 100 94 98 99 97 98 97 97 84 90 99 99 93 91 72 59 52 45 38 34 33 42 44 31
28 25 22 17 13 10 7 6 6 6 6 6 19 36 46 57 56 66 70 72 94 96 100 100 97 100 98 93 82 91 98 98 96 97 85 69 61 49 41 34 31 34 34 26
32 30 25 22 16 13 9 7 7 7 7 9 11 24 39 53 49 64 68 71 62 64 77 90 98 91 100 100 92 95 98 97 74 57 62 60 68 54 46 40 35 33 30 29
33 32 30 25 21 15 12 10 7 8 7 9 12 12 24 31 35 46 54 62 64 70 69 66 66 82 100 100 96 96 94 97 97 81 61 63 64 62 55 48 41 36 32 31
34 34 33 30 26 19 15 11 8 8 7 7 9 13 16 21 28 33 49 50 59 70 71 88 68 69 97 89 100 100 98 97 98 85 66 68 68 65 63 55 49 44 39 36
29 32 34 35 32 26 19 14 10 9 9 8 8 6 7 11 17 20 33 42 49 63 73 72 66 64 71 86 87 94 98 99 98 95 77 72 84 94 91 82 63 59 53 47
31 20 31 35 37 34 26 17 14 10 10 9 9 7 6 5 5 6 14 28 40 60 75 93 97 85 80 66 69 94 97 100 99 98 86 88 89 89 90 93 92 83 76 62
38 29 27 32 39 39 35 27 17 15 11 11 11 10 9 6 5 4 8 10 29 51 66 79 94 96 99 94 86 81 95 96 96 98 97 98 100 99 94 90 96 95 85 76
36 42 32 34 40 43 42 38 34 16 14 12 12 13 13 11 8 6 6 13 32 46 57 65 100 98 99 100 100 81 89 92 94 96 96 95 98 97 99 100 100 95 92 87
46 49 53 35 41 37 44 45 42 22 16 14 14 15 15 15 13 10 7 8 12 36 50 60 90 100 85 98 98 79 81 86 96 100 97 95 96 94 96 97 90 91 92 94
66 62 43 40 43 40 42 48 45 39 21 17 17 14 19 15 18 15 13 9 8 11 23 61 72 100 69 83 79 78 83 88 100 93 97 96 94 94 95 95 95 90 87 84
64 68 61 46 44 48 46 47 46 46 47 44 18 16 19 19 20 20 15 14 11 9 20 27 50 96 81 75 89 62 70 70 76 81 89 78 74 72 76 74 72 71 74 81
76 74 69 64 63 55 49 46 52 49 45 33 22 20 17 23 23 25 24 17 16 12 10 19 24 38 51 99 96 52 47 51 65 58 66 59 60 58 62 60 61 64 61 60
77 74 78 71 72 62 56 57 53 56 53 50 50 31 18 27 25 35 33 28 21 18 15 20 22 29 32 38 39 39 36 45 39 31 33 38 39 43 44 43 45 47 48 53
85 74 80 76 71 68 52 51 60 58 66 70 48 33 20 24 31 51 51 41 33 25 25 22 27 26 35 39 39 20 20 32 36 41 24 26 28 25 26 28 27 28 29 34
81 81 83 76 70 62 51 59 59 72 70 66 54 25 24 21 32 54 58 57 48 38 32 30 26 24 32 35 24 12 11 10 10 9 5 5 7 7 6 4 4 6 8 9
65 89 86 77 71 65 66 74 86 76 65 70 30 25 25 32 31 47 63 63 61 51 41 28 32 36 42 36 14 13 11 10 9 9 9 8 6 4 4 3 3 4 4 5
58 90 88 81 65 63 66 79 76 64 63 43 24 26 39 38 34 45 70 72 63 52 48 40 36 41 40 22 11 20 22 21 19 18 16 14 10 8 5 4 4 3 4 4
72 94 90 86 62 60 64 63 60 52 50 25 32 37 41 48 40 56 76 75 64 51 43 42 42 40 28 13 12 23 28 27 26 24 22 19 15 11 7 5 4 4 5 6
83 88 94 85 76 64 60 59 54 41 33 40 54 64 68 68 57 69 88 76 55 42 43 42 38 28 22 18 13 24 32 31 32 30 26 23 19 14 9 6 5 4 5 7
91 96 85 84 71 64 62 72 61 34 48 59 67 74 79 78 87 92 89 69 56 42 44 47 39 27 22 21 17 32 37 36 36 36 33 28 22 17 11 6 5 5 7 14
98 98 91 74 59 71 74 57 34 50 69 67 69 72 78 89 93 91 71 65 60 48 51 42 31 28 27 19 22 40 45 44 41 41 38 32 25 16 10 7 6 6 11 28
97 98 91 78 79 72 60 55 56 73 82 82 83 81 82 85 95 93 88 72 52 51 44 37 36 34 28 18 27 39 46 55 53 47 44 38 28 19 10 7 7 11 20 44
97 96 93 83 71 59 47 49 58 62 73 92 92 93 97 96 99 97 94 70 53 38 38 39 36 29 20 18 25 45 55 63 64 59 51 43 33 20 12 8 10 18 31 52
97 96 82 73 59 59 62 70 82 93 95 96 97 96 97 97 96 96 90 77 57 48 41 31 20 25 24 35 65 77 77 72 75 70 57 48 36 22 12 10 12 23 39 56
98 97 83 65 65 64 69 80 95 96 96 96 96 96 95 95 98 94 89 67 54 44 49 66 46 45 64 97 98 92 81 87 89 78 63 49 35 22 14 12 15 34 54 67
99 88 70 68 69 70 86 95 96 97 97 97 97 96 94 96 96 90 81 67 67 87 94 95 88 87 92 97 94 89 91 94 92 85 65 48 34 21 15 16 25 47 66 76
Wind_Speed
34 34 34 34 35 33 31 32 35 29 20 15 22 19 18 20 22 17 14 12 11 15 12 11 5 6 4 5 4 2 6 9 23 32 15 26 28 31 32 22 18 7 3 0
35 34 34 34 34 33 29 32 29 34 26 31 22 18 14 16 20 22 23 18 14 11 10 4 7 7 3 3 4 3 6 11 14 13 16 22 32 32 37 31 25 17 7 3
36 35 34 33 33 33 31 31 28 25 36 30 25 16 16 13 19 21 19 23 18 13 11 8 4 2 3 5 3 9 4 17 13 13 28 30 27 32 33 37 31 22 24 10
37 35 34 33 32 32 30 31 30 31 33 31 26 23 17 13 14 15 18 20 22 21 15 7 9 7 4 6 4 8 8 4 6 5 11 19 24 31 31 32 34 31 22 22
39 37 36 34 32 30 28 31 29 28 31 30 28 27 22 20 17 18 16 18 19 20 18 12 13 9 2 4 4 7 10 7 12 8 8 16 17 19 28 27 27 31 27 21
37 38 37 35 33 31 30 30 26 26 28 30 31 32 28 23 19 18 15 17 17 19 16 11 9 7 3 1 2 3 5 9 9 5 9 6 8 13 20 23 31 25 27 31
35 35 36 36 35 33 30 27 27 21 25 26 27 27 28 25 20 18 15 13 13 15 9 11 14 14 14 8 3 1 1 4 9 2 10 5 7 14 19 22 28 32 31 31
34 34 33 35 35 33 30 28 25 24 18 22 23 24 25 25 20 19 16 14 11 12 8 6 5 7 8 11 13 5 1 2 2 3 11 9 7 8 11 19 23 29 34 38
30 33 32 31 32 33 31 28 27 22 17 19 20 21 23 25 23 21 18 15 10 9 7 6 5 4 4 3 6 8 4 1 1 1 3 1 2 4 10 15 14 17 25 32
34 33 31 27 29 30 31 30 29 21 20 14 19 21 22 25 25 23 14 18 10 6 5 5 4 3 3 3 7 8 5 4 2 3 1 4 10 9 1 8 9 15 19 23
35 33 24 24 25 28 30 29 29 24 20 16 17 16 21 21 26 24 21 10 16 9 7 4 2 2 3 3 5 6 5 3 3 2 1 2 9 5 4 7 14 16 18 21
37 34 27 25 28 26 26 28 27 26 22 20 9 15 15 17 20 22 21 19 16 12 7 3 0 2 2 2 3 5 3 6 4 3 4 11 10 9 9 11 14 16 18 22
38 36 36 26 24 24 23 27 31 27 27 16 12 16 11 14 15 20 21 18 17 12 7 3 1 2 3 3 6 9 6 9 7 7 6 14 15 16 14 17 20 21 21 21
33 40 31 29 23 24 23 27 30 26 26 14 26 16 8 10 11 19 21 20 18 14 9 4 3 4 5 7 8 11 10 9 11 15 15 17 17 21 21 21 23 24 25 28
33 39 34 34 31 25 22 25 25 21 26 30 27 14 6 6 11 18 21 20 20 17 12 9 8 7 6 7 11 9 8 9 8 9 10 13 17 22 24 24 26 29 28 27
36 40 34 33 29 21 22 25 18 26 30 30 20 9 10 8 9 16 23 24 21 20 17 13 11 9 9 6 8 5 5 6 7 9 10 10 14 16 19 19 21 23 27 32
36 39 33 27 27 22 22 26 25 28 28 26 8 6 4 11 11 15 23 24 24 22 20 14 13 13 13 15 15 8 8 7 8 9 11 12 15 17 19 20 21 22 24 27
37 37 36 26 29 24 21 23 27 29 27 11 4 5 10 14 12 18 27 26 25 24 20 19 17 17 18 13 9 7 9 11 12 14 15 16 17 19 20 22 22 21 24 26
42 38 40 25 24 25 26 26 28 25 10 4 4 8 10 13 15 22 30 28 23 19 18 20 15 21 16 10 12 8 11 12 14 16 17 18 19 20 23 24 26 28 27 28
44 41 40 28 26 28 29 31 20 4 4 3 4 11 15 18 20 25 25 15 9 13 17 16 18 27 20 20 17 11 14 16 18 19 20 21 22 23 24 26 27 29 30 29
40 43 34 27 27 29 25 9 6 5 3 4 7 16 19 20 23 26 11 10 9 7 9 10 10 20 15 18 19 10 14 16 18 20 20 20 20 20 22 25 27 27 28 30
34 41 31 24 17 8 6 5 5 5 5 8 13 21 26 29 30 19 11 10 8 9 11 8 11 20 17 18 13 11 15 19 20 20 21 22 22 21 21 22 23 26 27 27
39 39 18 9 5 9 6 6 7 11 17 17 17 23 29 36 24 16 10 8 10 11 9 11 21 18 13 21 12 16 21 22 23 22 22 23 23 23 23 22 24 24 25 26
39 19 11 7 9 10 11 13 17 19 22 27 29 33 33 35 30 14 8 11 10 9 13 25 24 15 16 18 17 24 28 26 24 24 23 23 23 23 23 23 22 22 22 23
32 15 11 14 12 19 19 21 25 29 30 31 34 37 36 33 19 12 11 8 10 10 15 14 9 8 14 19 25 27 29 28 26 25 24 24 23 23 23 23 23 22 21 21
37 33 27 31 34 34 37 37 41 39 40 43 41 35 17 16 11 12 14 12 23 23 17 22 23 18 21 26 27 29 30 31 27 25 23 23 22 22 23 23 22 21 20 20
38 41 44 41 41 43 43 43 44 43 42 40 39 23 14 11 11 15 21 36 36 30 33 26 25 31 34 30 27 30 31 30 27 25 23 23 22 22 22 22 21 20 19 19
Wind_Direction
15 17 18 19 20 22 22 27 39 35 39 45 48 49 50 42 35 31 35 27 47 22 29 32 47 65 34 56 219 151 127 147 167 184 175 197 207 203 200 199 194 205 268 256
14 16 17 17 19 22 24 29 33 38 36 48 49 44 39 45 41 35 34 30 32 29 16 59 46 37 44 108 203 221 156 149 139 171 213 198 204 205 209 211 214 207 193 154
15 15 17 16 17 20 22 31 32 28 32 47 48 49 42 42 34 35 34 29 31 42 39 24 14 57 106 115 202 214 166 168 187 194 205 199 201 204 209 212 219 218 211 179
16 15 16 15 16 18 21 31 33 32 31 38 44 49 41 45 35 32 38 30 25 23 14 13 355 20 115 116 179 201 220 207 211 246 189 199 207 206 210 216 219 223 217 221
17 16 14 15 16 18 16 30 31 30 31 31 32 34 38 38 31 26 24 29 26 21 13 358 335 328 55 159 120 190 204 229 229 221 204 199 208 213 217 219 223 229 229 230
10 11 11 14 15 16 18 23 28 29 30 29 27 22 21 25 25 22 16 15 22 23 16 23 14 10 318 0 290 110 191 208 209 220 217 172 192 200 209 219 224 224 227 235
5 7 7 9 13 14 17 17 21 24 30 30 31 26 20 16 17 16 22 28 21 25 33 74 76 75 67 60 28 259 214 184 185 225 164 205 204 208 206 211 218 220 227 231
5 6 4 6 10 13 12 14 13 17 21 25 30 31 27 22 16 17 31 23 32 30 65 96 62 23 36 18 27 8 8 167 100 191 207 149 165 196 200 201 209 217 222 232
360 2 360 359 5 9 10 10 9 7 8 17 18 20 26 31 31 27 25 29 36 27 55 61 51 33 12 344 340 15 21 18 96 1 302 196 14 285 231 220 236 230 226 230
345 347 348 350 358 1 4 5 7 5 3 359 8 14 16 21 25 28 31 36 36 47 55 60 65 47 29 348 0 355 37 22 335 324 92 123 21 14 247 188 221 248 250 246
349 353 351 349 351 351 354 359 3 5 359 355 356 3 11 12 19 22 20 20 29 46 48 56 32 29 25 5 1 2 23 22 331 346 302 195 341 340 304 273 283 280 275 268
349 347 341 331 334 338 343 352 354 356 355 340 341 354 4 10 14 16 18 21 18 30 45 45 309 324 313 320 279 325 299 344 301 306 278 295 307 301 286 284 288 286 284 281
339 343 345 334 333 334 334 338 342 340 343 353 341 340 336 3 10 11 13 12 11 10 12 20 358 276 282 281 267 284 281 295 279 293 281 301 300 300 290 297 295 293 291 288
334 337 337 337 326 322 322 325 328 330 337 336 334 320 308 350 0 7 4 0 359 359 348 325 301 285 252 259 264 269 271 265 269 277 281 285 293 289 291 293 294 295 297 294
322 326 331 331 324 316 317 323 323 328 335 328 323 306 266 317 351 357 355 354 347 343 331 309 288 288 279 268 275 255 263 267 268 267 283 282 285 289 290 291 288 287 287 284
320 324 333 334 331 315 317 321 322 322 328 327 321 299 295 278 329 349 348 343 339 329 320 306 286 260 277 268 261 266 275 279 284 293 297 298 293 291 291 293 293 293 292 289
314 322 328 330 327 314 311 312 312 315 322 319 293 283 283 304 306 331 340 334 327 319 310 295 275 258 258 260 257 290 302 306 306 311 318 315 311 308 306 307 305 305 302 301
307 320 327 316 330 310 303 303 308 315 315 291 243 273 306 312 306 322 331 326 319 305 294 284 278 265 254 262 234 299 315 318 318 319 322 324 322 318 314 313 311 310 306 304
306 312 326 315 320 324 312 303 303 305 278 233 277 310 323 320 308 314 327 323 306 292 276 272 272 263 243 242 239 295 321 324 322 320 322 324 323 320 316 316 315 315 313 309
304 310 321 313 322 319 309 302 306 249 209 261 357 338 322 317 313 313 322 304 284 279 277 277 261 265 262 249 245 284 324 325 326 324 324 324 324 322 319 316 314 313 312 312
305 310 316 303 310 307 301 269 237 219 214 215 329 337 337 332 319 315 302 282 279 268 269 253 259 260 270 248 228 293 326 325 323 321 320 318 315 315 314 312 311 311 312 312
307 306 308 306 309 275 264 255 245 238 230 229 312 325 326 326 324 314 302 271 253 250 260 249 262 295 281 226 227 304 327 323 320 321 318 316 313 311 310 309 310 312 312 313
304 309 313 298 257 252 242 235 246 260 264 277 289 301 307 311 315 291 269 260 241 258 243 254 272 282 260 215 259 308 321 317 315 317 317 315 313 312 312 312 313 317 316 314
303 294 262 247 223 233 249 282 280 277 274 269 279 290 291 291 295 278 243 245 249 246 248 267 278 276 228 231 285 303 305 309 310 312 315 314 312 311 312 311 310 310 312 312
277 257 247 237 245 250 257 278 287 280 276 271 275 285 291 287 274 250 242 234 235 241 259 286 290 273 259 278 293 299 302 304 304 306 309 311 311 310 309 308 307 307 309 310
258 245 256 272 278 277 277 282 287 292 285 281 278 287 277 260 234 232 222 240 259 271 280 290 291 282 282 297 300 298 297 301 300 297 301 304 305 306 304 302 300 301 303 306
251 256 271 274 281 291 294 293 298 295 293 286 280 268 268 244 232 241 250 263 280 276 277 282 282 284 287 293 296 294 295 297 295 291 294 297 300 300 300 298 296 294 296 298